Tracking 31030 objects as of 16-Jul-2025
HD Live streaming from Space Station
objects crossing your sky now

DMSP 5D-2 F11 DEB

Track DMSP 5D-2 F11 DEB now!
10-day predictions


NORAD ID: 28310
Int'l Code: 1991-082X
Perigee: 568.2 km
Apogee: 570.6 km
Inclination: 98.5 °
Period: 95.9 minutes
Semi major axis: 6940 km
RCS: 0.0074 m2 (small)
Launch date: November 28, 1991
Source: United States (US)
Launch site: AIR FORCE WESTERN TEST RANGE (AFWTR)

Note: This is SATELLITE DEBRIS
Your satellite tracking list
Your tracking list is empty




NASA's NSSDC Master Catalog

Two Line Element Set (TLE):
1 28310U 91082X   25196.25896422  .00050232  00000-0  38633-2 0  9992
2 28310  98.5472 308.7962 0001669 196.0506 164.0663 15.01500366109941
Source of the keplerian elements: AFSPC